[[{"header":{"parameterUnit":"m.s-1","parameterCategory":1,"la1":30.2991,"la2":30.254,"lo1":-89.0895,"lo2":-89.0444,"dy":0.0017,"dx":0.0017,"nx":28,"ny":28,"refTime":"2023-04-28T21:00:00:Z","depth":0,"parameterNumber":2,"parameterNumberName":"U-component_of_WINDS"},"data":[0,0,0,0,0,0,0,0,0,0,0,0,0,0,0,0,0,0,0,0,0,0,0,0,0,0,0,0,0,0,0,0,0,0,0,0,0,0,0,0,0,0,0,0,0,0,0,0,0,0,0,0,0,0,0,0,0,0,8.0503,8.0506,0,8.0714,8.0716,8.0718,8.0641,8.0636,8.0631,8.0626,8.0843,8.0853,8.0863,0,0,0,0,0,0,0,0,0,0,0,0,0,8.0035,8.0044,8.0503,8.0506,8.0508,8.0713,8.0716,8.0719,8.0641,8.0636,8.063,8.0624,8.0839,8.0851,8.0864,0,0,0,0,0,0,0,0,0,0,0,0,0,8.0241,8.0047,8.0503,8.0494,8.0496,8.0713,8.0716,8.072,8.0643,8.0635,8.0628,8.0622,8.0835,8.085,8.0865,8.1103,0,0,8.0912,8.0919,0,0,0,0,0,0,0,0,8.023,8.0259,8.0493,8.0495,8.0497,8.0643,8.063,8.0848,8.0644,8.0587,8.0626,8.0618,8.0782,8.0801,8.0857,8.1113,8.1123,8.0913,8.0923,8.0929,8.0934,0,0,0,0,0,0,0,8.0216,8.0249,8.0586,8.0496,8.0499,8.048,8.0502,8.0671,8.0722,8.0591,8.0586,8.0612,8.0782,8.0842,8.0861,8.1126,8.0913,8.0927,8.0936,8.0942,8.1589,8.1596,0,0,0,0,0,0,8.02,8.0238,8.058,8.0593,8.0343,8.0495,8.0519,8.0604,8.072,8.0731,8.0618,8.0608,8.0819,8.0843,8.0869,8.1155,8.0929,8.0944,8.0952,8.1581,8.159,8.1599,0,0,0,0,0,0,8.0191,8.0232,8.0571,8.0414,8.0456,8.051,8.0607,8.0612,8.0672,8.074,8.0749,8.067,8.0815,8.0847,8.1045,8.1161,8.095,8.0964,8.1571,8.1584,8.1595,8.173,0,0,0,0,0,0,8.0178,8.0229,8.0319,8.0417,8.0464,8.0745,8.0614,8.0621,8.0698,8.0687,8.0791,8.0802,8.0812,8.1023,8.1061,8.1179,8.0976,8.1561,8.1577,8.1591,8.1715,8.1745,8.177,0,0,0,0,0,8.0161,8.0349,8.0324,8.0366,8.0579,8.0751,8.0779,8.0786,8.0708,8.08,8.0844,8.0798,8.1143,8.1044,8.1086,8.121,8.1554,8.1572,8.159,8.1703,8.1739,8.1769,0,0,0,0,0,0,8.0264,8.0361,8.0335,8.056,8.0648,8.0738,8.0854,8.0824,8.0936,8.0921,8.0925,8.095,8.1154,8.1202,8.109,8.1447,8.1337,8.1364,8.1408,8.1443,8.147,8.1454,8.0989,0,0,0,0,0,8.0313,8.0444,8.0523,8.0713,8.0759,8.0799,8.0875,8.0873,8.0964,8.1001,8.106,8.1151,8.1279,8.1364,8.1486,8.1722,8.1743,8.1828,8.1855,8.1877,8.1901,8.203,8.2068,8.1658,8.1658,8.1658,0,0,8.0415,8.0484,8.0567,8.0736,8.0804,8.0941,8.0831,8.098,8.1082,8.1024,8.1215,8.1261,8.1363,8.1581,8.1681,8.1627,8.2019,8.19,8.1918,8.1929,8.2052,8.2091,8.2125,8.167,8.1668,8.1666,0,0,8.0671,8.0737,8.0903,8.0974,8.1078,8.1103,8.1144,8.1239,8.1267,8.1459,8.1418,8.154,8.1761,8.1835,8.1902,8.2187,8.215,8.2227,8.2371,8.2496,8.2528,8.2557,8.2659,8.2696,8.225,8.225,8.225,0,8.0785,8.0989,8.0992,8.1146,8.1221,8.1175,8.1343,8.1412,8.1551,8.1604,8.1543,8.182,8.1885,8.212,8.219,8.2246,8.2292,8.2215,8.2523,8.2552,8.2579,8.2676,8.2715,8.2259,8.2258,8.2257,8.2256,0,8.1124,8.1266,8.1388,8.1524,8.1613,8.1773,8.1801,8.1891,8.1882,8.1914,8.2111,8.2187,8.2324,8.238,8.2372,8.2615,8.2579,8.2521,8.241,8.2627,8.2718,8.2756,8.2271,8.2268,8.2266,8.2263,0,0,8.1451,8.1586,8.1631,8.1692,8.1804,8.1914,8.2073,8.2206,8.2284,8.2381,8.2515,8.2703,8.265,8.2726,8.2726,8.2837,8.3058,8.2765,8.2767,8.2817,8.3331,8.3374,8.3417,8.3034,8.3041,8.3047,8.3322,0,8.1716,8.1993,8.2001,8.2256,8.2387,8.2346,8.2483,8.2567,8.2602,8.2719,8.2757,8.2891,8.2811,8.2856,8.2964,8.3008,8.3161,8.2989,8.3158,8.3164,8.3134,8.3465,8.3511,8.3767,8.3358,8.3364,8.3369,0,8.2062,8.2171,8.2438,8.2532,8.2587,8.2711,8.2834,8.2947,8.3041,8.3059,8.3144,8.3128,8.329,8.3175,8.3399,8.3281,8.3351,8.3384,8.3394,8.341,8.328,8.349,8.3849,8.3888,8.3425,8.3421,8.3416,0,8.2274,8.2487,8.2675,8.2728,8.2842,8.293,8.2981,8.3069,8.3149,8.3257,8.3309,8.3435,8.3504,8.3602,8.3621,8.3535,8.3846,8.3731,8.3865,8.3865,8.3932,8.3928,8.4308,8.3978,8.3977,8.3976,8.3975,0,8.257,8.2735,8.2771,8.2887,8.3071,8.3079,8.3261,8.3306,8.3384,8.3508,8.3479,8.3596,8.3614,8.3735,8.3751,8.3934,8.3965,8.3984,8.3987,8.3987,8.3985,8.4033,8.4016,8.3986,8.3984,8.3982,8.398,0,8.2838,8.2869,8.307,8.3161,8.3188,8.332,8.3398,8.3509,8.354,8.3697,8.3734,8.3784,8.3925,8.3954,8.4121,8.4131,8.435,8.4334,8.4318,8.4316,8.4449,8.4436,8.4873,8.4931,8.4563,8.4566,8.4569,0,8.3024,8.315,8.3255,8.3336,8.3391,8.3522,8.3603,8.3616,8.3702,8.382,8.3917,8.4055,8.4166,8.4394,8.4445,8.4573,8.456,8.4705,8.4579,8.4576,8.4563,8.4555,8.4568,8.4729,8.4733,8.4736,8.4739,0,8.3353,8.3362,8.348,8.3605,8.3703,8.3802,8.3895,8.3963,8.3989,8.4087,8.4231,8.4317,8.4488,8.4626,8.4754,8.4807,8.4778,8.4778,8.4815,8.4817,8.4803,8.4813,8.4384,8.4768,8.4765,8.4763,8.4761,8.476,8.3586,8.3696,8.3787,8.392,8.3992,8.408,8.4189,8.4234,8.4354,8.4494,8.4494,8.4652,8.4743,8.4912,8.4973,8.5097,8.5052,8.5106,8.512,8.5134,8.5146,8.4783,8.512,8.512,8.5119,8.5118,8.5118,0,8.3913,8.3969,8.4092,8.4224,8.4329,8.4292,8.4393,8.4484,8.4623,8.471,8.482,8.4986,8.512,8.5182,8.5313,8.5401,8.5391,8.5435,8.5429,8.5441,8.5179,8.5133,8.5441,8.5441,8.5441,8.544,8.544,8.544,8.4096,8.428,8.43,8.4521,8.4576,8.473,8.4791,8.4873,8.4943,8.5129,8.5239,8.5279,8.5356,8.5494,8.5615,8.5629,8.5679,8.573,8.5739,8.5493,8.546,8.5429,8.5386,8.5741,8.5741,8.5991,8.5993,8.5995]},{"header":{"parameterUnit":"m.s-1","parameterCategory":1,"la1":30.2991,"la2":30.254,"lo1":-89.0895,"lo2":-89.0444,"dy":0.0017,"dx":0.0017,"nx":28,"ny":28,"refTime":"2023-04-28T21:00:00:Z","depth":0,"parameterNumber":3,"parameterNumberName":"V-component_of_WINDS"},"data":[0,0,0,0,0,0,0,0,0,0,0,0,0,0,0,0,0,0,0,0,0,0,0,0,0,0,0,0,0,0,0,0,0,0,0,0,0,0,0,0,0,0,0,0,0,0,0,0,0,0,0,0,0,0,0,0,0,0,-2.0277,-2.0278,0,-2.0349,-2.035,-2.0351,-2.0323,-2.0322,-2.032,-2.0319,-2.0397,-2.04,-2.0404,0,0,0,0,0,0,0,0,0,0,0,0,0,-2.0121,-2.0124,-2.0277,-2.0278,-2.0279,-2.0349,-2.035,-2.0351,-2.0324,-2.0322,-2.032,-2.0318,-2.0395,-2.04,-2.0404,0,0,0,0,0,0,0,0,0,0,0,0,0,-2.0191,-2.0125,-2.0277,-2.0274,-2.0274,-2.0349,-2.035,-2.0351,-2.0324,-2.0322,-2.0319,-2.0317,-2.0394,-2.0399,-2.0405,-2.0488,0,0,-2.0421,-2.0424,0,0,0,0,0,0,0,0,-2.0187,-2.0196,-2.0273,-2.0274,-2.0275,-2.0325,-2.0323,-2.0397,-2.0325,-2.0305,-2.0319,-2.0316,-2.0375,-2.0382,-2.0401,-2.0492,-2.0495,-2.0422,-2.0425,-2.0427,-2.0429,0,0,0,0,0,0,0,-2.0182,-2.0193,-2.0306,-2.0275,-2.0275,-2.027,-2.0277,-2.0337,-2.0354,-2.0307,-2.0305,-2.0314,-2.0375,-2.0396,-2.0403,-2.0496,-2.0422,-2.0427,-2.043,-2.0432,-2.0661,-2.0664,0,0,0,0,0,0,-2.0176,-2.0189,-2.0304,-2.0308,-2.0223,-2.0275,-2.0283,-2.0311,-2.0353,-2.0357,-2.0316,-2.0312,-2.0388,-2.0396,-2.0405,-2.0506,-2.0427,-2.0433,-2.0436,-2.0658,-2.0662,-2.0665,0,0,0,0,0,0,-2.0173,-2.0187,-2.0301,-2.0248,-2.0262,-2.028,-2.0312,-2.0314,-2.0335,-2.0359,-2.0363,-2.0334,-2.0386,-2.0398,-2.0468,-2.0509,-2.0435,-2.044,-2.0655,-2.0659,-2.0663,-2.0709,0,0,0,0,0,0,-2.0168,-2.0186,-2.0216,-2.0249,-2.0265,-2.0361,-2.0315,-2.0317,-2.0344,-2.034,-2.0377,-2.0381,-2.0385,-2.046,-2.0473,-2.0515,-2.0444,-2.0651,-2.0657,-2.0662,-2.0704,-2.0714,-2.0723,0,0,0,0,0,-2.0163,-2.0227,-2.0218,-2.0232,-2.0304,-2.0363,-2.0372,-2.0374,-2.0347,-2.0379,-2.0395,-2.038,-2.0502,-2.0467,-2.0482,-2.0526,-2.0649,-2.0655,-2.0661,-2.07,-2.0712,-2.0723,0,0,0,0,0,0,-2.02,-2.0231,-2.0222,-2.0298,-2.0328,-2.0358,-2.0398,-2.0388,-2.0427,-2.0422,-2.0424,-2.0433,-2.0505,-2.0523,-2.0483,-2.061,-2.0572,-2.0581,-2.0596,-2.0608,-2.0617,-2.0612,-2.0449,0,0,0,0,0,-2.0217,-2.0261,-2.0287,-2.0352,-2.0367,-2.038,-2.0406,-2.0405,-2.0437,-2.045,-2.0471,-2.0503,-2.0549,-2.0579,-2.0623,-2.0706,-2.0715,-2.0744,-2.0754,-2.0762,-2.077,-2.0817,-2.083,-2.0685,-2.0685,-2.0685,0,0,-2.0253,-2.0275,-2.0303,-2.036,-2.0383,-2.043,-2.0391,-2.0442,-2.0478,-2.0458,-2.0525,-2.0542,-2.0579,-2.0656,-2.0691,-2.0673,-2.0812,-2.077,-2.0776,-2.078,-2.0824,-2.0838,-2.085,-2.069,-2.0689,-2.0688,0,0,-2.0342,-2.0363,-2.042,-2.0443,-2.0478,-2.0487,-2.0501,-2.0533,-2.0543,-2.061,-2.0596,-2.0639,-2.0718,-2.0745,-2.0769,-2.0869,-2.0857,-2.0883,-2.0934,-2.0979,-2.0991,-2.1001,-2.1037,-2.105,-2.0892,-2.0892,-2.0892,0,-2.0382,-2.0451,-2.0451,-2.0503,-2.0529,-2.0512,-2.057,-2.0594,-2.0642,-2.0661,-2.0639,-2.0738,-2.0761,-2.0845,-2.087,-2.089,-2.0906,-2.0879,-2.0989,-2.0999,-2.1008,-2.1043,-2.1057,-2.0895,-2.0894,-2.0894,-2.0894,0,-2.05,-2.0548,-2.059,-2.0635,-2.0666,-2.0721,-2.073,-2.0761,-2.0758,-2.0769,-2.0839,-2.0866,-2.0916,-2.0935,-2.0933,-2.102,-2.1007,-2.0987,-2.0949,-2.1025,-2.1058,-2.1071,-2.0899,-2.0898,-2.0897,-2.0896,0,0,-2.0614,-2.0658,-2.0674,-2.0695,-2.0732,-2.077,-2.0825,-2.0872,-2.0899,-2.0933,-2.0981,-2.1048,-2.103,-2.1057,-2.1058,-2.1098,-2.1176,-2.1073,-2.1074,-2.1092,-2.1275,-2.129,-2.1305,-2.1168,-2.1171,-2.1173,-2.1272,0,-2.0707,-2.0801,-2.0803,-2.0891,-2.0936,-2.0921,-2.0969,-2.0998,-2.1011,-2.1052,-2.1066,-2.1114,-2.1086,-2.1103,-2.1141,-2.1158,-2.1213,-2.1151,-2.1214,-2.1216,-2.1205,-2.1322,-2.1338,-2.143,-2.1285,-2.1287,-2.1288,0,-2.0827,-2.0864,-2.0956,-2.0987,-2.1006,-2.1049,-2.1093,-2.1132,-2.1166,-2.1172,-2.1202,-2.1197,-2.1256,-2.1215,-2.1296,-2.1254,-2.128,-2.1293,-2.1296,-2.1303,-2.1257,-2.1332,-2.1459,-2.1473,-2.1308,-2.1307,-2.1305,0,-2.0902,-2.0975,-2.1039,-2.1057,-2.1096,-2.1126,-2.1144,-2.1175,-2.1203,-2.1242,-2.126,-2.1306,-2.1331,-2.1367,-2.1375,-2.1345,-2.1457,-2.1417,-2.1465,-2.1465,-2.149,-2.1488,-2.1623,-2.1506,-2.1505,-2.1505,-2.1505,0,-2.1006,-2.1063,-2.1073,-2.1113,-2.1177,-2.1179,-2.1243,-2.1259,-2.1286,-2.133,-2.1321,-2.1362,-2.137,-2.1414,-2.1421,-2.1488,-2.1499,-2.1507,-2.1509,-2.1509,-2.1508,-2.1526,-2.152,-2.1509,-2.1508,-2.1507,-2.1507,0,-2.1101,-2.111,-2.1179,-2.1209,-2.1218,-2.1265,-2.1291,-2.133,-2.1341,-2.1397,-2.1411,-2.1429,-2.148,-2.1492,-2.1553,-2.1558,-2.1637,-2.1632,-2.1626,-2.1625,-2.1673,-2.1669,-2.1825,-2.1847,-2.1714,-2.1716,-2.1717,0,-2.1166,-2.121,-2.1244,-2.1272,-2.1291,-2.1336,-2.1365,-2.1369,-2.1399,-2.1441,-2.1475,-2.1525,-2.1565,-2.1649,-2.1669,-2.1716,-2.1712,-2.1764,-2.172,-2.1718,-2.1714,-2.1712,-2.1717,-2.1773,-2.1774,-2.1775,-2.1776,0,-2.1282,-2.1284,-2.1325,-2.1367,-2.1401,-2.1435,-2.1468,-2.1492,-2.15,-2.1536,-2.1587,-2.1618,-2.168,-2.1731,-2.1778,-2.1799,-2.179,-2.179,-2.1804,-2.1804,-2.1799,-2.1803,-2.1649,-2.1786,-2.1785,-2.1785,-2.1784,-2.1784,-2.1365,-2.1403,-2.1433,-2.1479,-2.1504,-2.1534,-2.1573,-2.1588,-2.1631,-2.168,-2.1681,-2.1738,-2.1771,-2.1834,-2.1857,-2.1903,-2.1887,-2.1907,-2.1912,-2.1917,-2.1922,-2.1791,-2.1912,-2.1911,-2.1911,-2.1911,-2.1911,0,-2.1481,-2.1499,-2.1541,-2.1587,-2.1623,-2.1609,-2.1645,-2.1677,-2.1726,-2.1758,-2.1797,-2.1857,-2.1906,-2.193,-2.1979,-2.2011,-2.2009,-2.2024,-2.2022,-2.2028,-2.1933,-2.1916,-2.2026,-2.2026,-2.2026,-2.2026,-2.2026,-2.2026,-2.1545,-2.1609,-2.1616,-2.1692,-2.1711,-2.1765,-2.1787,-2.1816,-2.1841,-2.1908,-2.1948,-2.1962,-2.1991,-2.2042,-2.2087,-2.2093,-2.2112,-2.213,-2.2134,-2.2046,-2.2034,-2.2023,-2.2007,-2.2134,-2.2134,-2.2225,-2.2226,-2.2227]}]]